Date_and_time,latitude,longitude,wind_speed,RelWindDirFrom,WindDirFrom,air_pressure,air_temperature,relative_humidity,Temp,platform_speed_wrt_ground,air_pressure_at_mean_sea_level,platform_orientation
2018-06-29 00:00,50.9117316666667,-96.98252,7.3,8.9,149,979.00,23.2,70,22.69,0.0,1004.41,360.0
2018-06-29 00:10,50.9117333333333,-96.9825283333333,6.8,8.5,145,979.03,23.2,70,22.76,0.0,1004.44,360.0
2018-06-29 00:20,50.911735,-96.982525,7.5,9.3,141,978.95,23.4,67,22.83,0.0,1004.35,360.0
2018-06-29 00:30,50.9117333333333,-96.9825283333333,6.9,8.1,147,979.06,23.4,68,22.87,0.0,1004.46,360.0
2018-06-29 00:40,50.9117316666667,-96.9825266666667,7.6,8.2,149,979.15,23.2,69,22.89,0.0,1004.57,360.0
2018-06-29 00:50,50.9117283333333,-96.9825266666667,8.7,10.1,138,979.10,23.5,61,22.91,0.0,1004.49,360.0
2018-06-29 01:00,50.9117283333333,-96.9825283333333,8.5,10.2,142,979.22,23.9,58,22.88,0.0,1004.61,360.0
2018-06-29 01:10,50.91173,-96.9825283333333,7.1,8.3,146,979.30,23.5,64,22.90,0.0,1004.70,360.0
2018-06-29 01:20,50.91173,-96.9825283333333,5.9,7.4,145,979.24,23.4,66,22.91,0.0,1004.64,360.0
2018-06-29 01:30,50.9117233333333,-96.982525,6.7,7.7,149,979.24,23.1,67,22.89,0.0,1004.65,360.0
2018-06-29 01:40,50.9117316666667,-96.98252,7.2,8.3,155,979.15,23.1,67,22.87,0.0,1004.58,360.0
2018-06-29 01:50,50.91174,-96.9825266666667,6.1,7.2,154,979.07,22.9,71,22.85,0.0,1004.52,360.0
2018-06-29 02:00,50.91173,-96.9825366666667,6.2,7.6,154,978.90,22.8,70,22.80,0.0,1004.34,234.2
2018-06-29 02:10,50.91173,-96.98253,6.2,7.5,155,978.87,22.8,70,22.77,0.0,1004.30,234.2
2018-06-29 02:20,50.9117266666667,-96.98253,4.9,6.1,154,978.94,22.5,75,22.72,0.0,1004.38,234.2
2018-06-29 02:30,50.9117283333333,-96.9825333333333,5.3,6.9,137,978.81,22.5,74,22.66,0.0,1004.27,234.2
2018-06-29 02:40,50.9117283333333,-96.982535,5.6,7.0,142,979.06,22.7,67,22.60,0.0,1004.50,234.2
2018-06-29 02:50,50.9117316666667,-96.9825566666667,3.1,5.1,145,979.32,22.7,70,22.57,0.0,1004.75,234.2
2018-06-29 03:00,50.9117333333333,-96.982535,2.4,7.1,139,979.29,22.3,72,22.48,0.0,1004.74,270.0
2018-06-29 03:10,50.9117366666667,-96.9825316666667,3.6,5.9,148,979.31,22.4,72,22.39,0.0,1004.77,270.0
2018-06-29 03:20,50.9117366666667,-96.9825283333333,4.5,7.1,134,979.24,22.5,71,22.36,0.0,1004.71,270.0
2018-06-29 03:30,50.91173,-96.9825266666667,3.3,4.6,145,979.12,22.2,78,22.33,0.0,1004.60,270.0
2018-06-29 03:40,50.91173,-96.98253,3.7,6.3,143,979.22,22.2,75,22.28,0.0,1004.71,270.0
2018-06-29 03:50,50.9117316666667,-96.98253,3.6,6.0,163,979.48,22.5,73,22.26,0.0,1004.96,270.0
2018-06-29 04:00,50.9117383333333,-96.9824816666667,2.6,4.4,179,979.45,22.0,79,22.21,0.0,1004.96,67.1
2018-06-29 04:10,50.9117416666667,-96.982515,1.4,2.9,153,979.29,21.7,84,22.10,0.0,1004.82,67.1
2018-06-29 04:20,50.9117216666667,-96.98254,1.9,3.4,137,979.09,21.8,85,22.01,0.0,1004.62,67.1
2018-06-29 04:30,50.9117183333333,-96.9825183333333,2.3,3.6,155,979.07,21.5,90,21.91,0.0,1004.59,67.1
2018-06-29 04:40,50.91173,-96.9825166666667,2.5,4.6,165,979.03,21.4,93,21.82,0.0,1004.56,67.1
2018-06-29 04:50,50.91173,-96.98252,2.6,4.2,155,978.96,21.2,93,21.74,0.0,1004.51,67.1
2018-06-29 05:00,50.91173,-96.98252,2.6,4.4,159,979.09,21.1,96,21.67,0.0,1004.65,90.0
2018-06-29 05:10,50.91173,-96.9825233333333,2.5,3.8,173,979.32,21.0,99,21.62,0.0,1004.89,90.0
2018-06-29 05:20,50.91173,-96.9825233333333,3.3,5.3,187,979.61,20.8,96,21.57,0.0,1005.20,90.0
2018-06-29 05:30,50.9117316666667,-96.982525,3.3,5.4,183,979.80,20.9,82,21.52,0.0,1005.39,90.0
2018-06-29 05:40,50.9117316666667,-96.9825266666667,1.6,3.8,204,979.91,21.2,70,21.48,0.0,1005.48,90.0
2018-06-29 05:50,50.911725,-96.9825166666667,1.0,2.5,226,979.82,21.1,69,21.41,0.0,1005.41,90.0
2018-06-29 06:00,50.911725,-96.982525,2.1,3.1,190,979.68,21.0,68,21.31,0.0,1005.28,132.1
2018-06-29 06:10,50.911705,-96.98258,0.4,1.6,142,979.55,21.2,70,21.23,0.0,1005.14,132.1
2018-06-29 06:20,50.911725,-96.9825216666667,0.1,1.0,249,979.52,21.1,72,21.14,0.0,1005.13,132.1
2018-06-29 06:30,50.9117266666667,-96.98252,0.5,1.8,192,979.39,20.7,73,21.06,0.0,1005.02,132.1
2018-06-29 06:40,50.911725,-96.9825216666667,0.3,1.5,28,979.22,20.9,74,21.01,0.0,1004.84,132.1
2018-06-29 06:50,50.911725,-96.9825083333333,1.5,2.1,41,979.03,20.5,75,20.94,0.0,1004.67,132.1
2018-06-29 07:00,50.9117233333333,-96.9825266666667,0.1,1.1,310,979.24,20.4,78,20.88,0.0,1004.89,236.2
2018-06-29 07:10,50.9117366666667,-96.982525,1.7,2.7,209,979.46,20.8,79,20.84,0.0,1005.11,236.2
2018-06-29 07:20,50.9117333333333,-96.9825216666667,2.2,3.4,194,979.25,21.4,76,20.79,0.0,1004.86,236.2
2018-06-29 07:30,50.9117283333333,-96.9825233333333,2.2,2.6,175,979.01,21.3,76,20.77,0.0,1004.60,236.2
2018-06-29 07:40,50.9117333333333,-96.9825316666667,1.1,1.7,166,978.69,21.0,78,20.75,0.0,1004.29,236.2
2018-06-29 07:50,50.9117366666667,-96.9825283333333,0.7,2.0,76,978.26,20.8,80,20.70,0.0,1003.86,236.2
2018-06-29 08:00,50.9117383333333,-96.9825333333333,3.5,5.9,54,978.02,19.8,93,20.65,0.0,1003.66,350.2
2018-06-29 08:10,50.9117383333333,-96.9825333333333,1.7,2.4,44,978.30,20.0,100,20.58,0.0,1003.95,350.2
2018-06-29 08:20,50.9117183333333,-96.9825416666667,1.9,2.7,79,978.40,20.5,100,20.52,0.0,1004.04,350.2
2018-06-29 08:30,50.9117283333333,-96.982535,2.0,2.5,82,978.50,20.6,99,20.46,0.0,1004.12,350.2
2018-06-29 08:40,50.9117283333333,-96.9825316666667,2.7,4.0,127,978.43,20.2,99,20.40,0.0,1004.09,350.2
2018-06-29 08:50,50.9117283333333,-96.98253,2.8,4.0,145,978.23,19.8,100,20.35,0.0,1003.91,350.2
2018-06-29 09:00,50.9117133333333,-96.9825233333333,1.9,2.9,127,978.06,19.7,100,20.34,0.0,1003.72,360.0
2018-06-29 09:10,50.91174,-96.9825233333333,1.5,2.9,97,977.67,20.4,100,20.35,0.0,1003.26,360.0
2018-06-29 09:20,50.9117216666667,-96.9825383333333,2.3,2.9,78,977.28,20.5,100,20.37,0.0,1002.86,360.0
2018-06-29 09:30,50.9117233333333,-96.9825333333333,2.6,3.4,70,977.10,20.5,100,20.40,0.0,1002.70,360.0
2018-06-29 09:40,50.9117233333333,-96.9825283333333,3.2,4.7,68,976.89,20.7,100,20.44,0.0,1002.48,360.0
2018-06-29 09:50,50.9117116666667,-96.9825283333333,3.6,5.1,89,977.08,21.2,91,20.51,0.0,1002.70,360.0
2018-06-29 10:00,50.91172,-96.9825233333333,6.8,10.1,158,977.73,21.4,85,20.59,0.0,1003.34,170.2
2018-06-29 10:10,50.9117266666667,-96.982525,5.9,7.8,159,977.67,21.4,87,20.76,0.0,1003.26,170.2
2018-06-29 10:20,50.9117233333333,-96.98253,6.6,8.9,153,977.70,21.3,86,20.90,0.0,1003.29,170.2
2018-06-29 10:30,50.9117383333333,-96.9825233333333,8.6,10.1,146,977.87,21.4,80,21.01,0.0,1003.48,170.2
2018-06-29 10:40,50.911735,-96.98253,9.6,12.0,156,978.00,21.2,83,21.09,0.0,1003.64,170.2
2018-06-29 10:50,50.9117316666667,-96.9825266666667,10.5,15.5,163,978.07,20.9,77,21.15,0.0,1003.72,170.2
2018-06-29 11:00,50.91173,-96.982525,12.1,15.7,163,978.18,20.9,71,21.19,0.0,1003.81,360.0
2018-06-29 11:10,50.9117316666667,-96.982525,12.6,18.0,166,978.24,20.6,71,21.21,0.0,1003.87,360.0
2018-06-29 11:20,50.9117316666667,-96.9825233333333,15.8,19.1,170,978.16,20.5,70,21.18,0.0,1003.80,360.0
2018-06-29 11:30,50.91173,-96.9825233333333,16.2,20.4,176,977.93,20.2,73,21.13,0.0,1003.57,360.0
2018-06-29 11:40,50.91173,-96.982525,14.4,16.9,171,977.76,19.8,73,21.03,0.0,1003.39,360.0
2018-06-29 11:50,50.9117366666667,-96.9825383333333,13.3,16.2,168,977.47,19.5,78,20.92,0.0,1003.09,360.0
2018-06-29 12:00,50.91174,-96.9825216666667,10.0,14.5,165,977.15,19.4,81,20.82,0.0,1002.77,360.0
2018-06-29 12:10,50.9117416666667,-96.9825266666667,11.9,16.0,155,976.71,19.6,77,20.75,0.0,1002.32,360.0
2018-06-29 12:20,50.91174,-96.9825233333333,16.2,21.1,142,975.98,19.9,73,20.74,0.0,1001.55,360.0
2018-06-29 12:30,50.9117383333333,-96.9825233333333,16.5,21.2,135,975.57,20.0,70,20.76,0.0,1001.14,360.0
2018-06-29 12:40,50.9117283333333,-96.9825166666667,16.9,20.1,129,975.46,19.8,68,20.76,0.0,1001.04,360.0
2018-06-29 12:50,50.9117233333333,-96.9825216666667,18.4,21.3,126,975.51,19.8,68,20.74,0.0,1001.10,360.0
2018-06-29 13:00,50.9117333333333,-96.9825216666667,14.2,18.7,121,975.82,19.7,71,20.72,0.0,1001.42,360.0
2018-06-29 13:10,50.91173,-96.9824866666667,13.4,16.4,120,975.90,20.0,67,20.71,0.0,1001.50,360.0
2018-06-29 13:20,50.9117233333333,-96.9825383333333,9.9,13.8,112,975.97,20.5,68,20.71,0.0,1001.56,360.0
2018-06-29 13:30,50.9117233333333,-96.98253,8.4,11.9,100,976.30,20.8,66,20.71,0.0,1001.91,360.0
2018-06-29 13:40,50.9117233333333,-96.9825316666667,4.4,6.8,80,976.90,20.8,68,20.71,0.0,1002.54,360.0
2018-06-29 13:50,50.9117333333333,-96.9825316666667,3.0,4.6,345,977.44,20.5,69,20.72,0.0,1003.11,360.0
2018-06-29 14:00,50.9117283333333,-96.9825316666667,2.2,4.3,300,977.78,20.1,71,20.71,0.0,1003.47,90.0
2018-06-29 14:10,50.911725,-96.9825283333333,1.4,3.0,337,977.78,20.1,72,20.71,0.0,1003.46,90.0
2018-06-29 14:20,50.911725,-96.98253,2.5,3.9,24,977.58,20.3,72,20.70,0.0,1003.23,90.0
2018-06-29 14:30,50.911725,-96.9825316666667,2.0,3.6,32,977.53,20.9,69,20.71,0.0,1003.17,90.0
2018-06-29 14:40,50.911725,-96.98253,4.6,6.2,42,977.29,21.3,66,20.74,0.0,1002.91,90.0
2018-06-29 14:50,50.911725,-96.98253,4.3,6.3,41,977.31,21.5,63,20.79,0.0,1002.92,90.0
2018-06-29 15:00,50.9117266666667,-96.98253,4.2,7.5,50,977.49,22.2,60,20.84,0.0,1003.06,192.9
2018-06-29 15:10,50.9117416666667,-96.9825383333333,7.4,9.0,52,977.57,22.4,62,20.92,0.0,1003.11,192.9
2018-06-29 15:20,50.9117316666667,-96.9825266666667,6.1,8.5,56,977.87,22.3,63,20.98,0.0,1003.41,192.9
2018-06-29 15:30,50.911705,-96.982525,5.9,8.1,52,978.01,22.5,63,21.04,0.0,1003.55,192.9
2018-06-29 15:40,50.9117216666667,-96.9825283333333,5.7,7.5,48,978.11,22.1,63,21.10,0.0,1003.68,192.9
2018-06-29 15:50,50.911725,-96.982535,5.3,7.5,46,978.38,22.0,61,21.13,0.0,1003.98,192.9
2018-06-29 16:00,50.9117183333333,-96.9825133333333,5.2,7.3,41,978.32,22.2,54,21.17,0.0,1003.91,157.3
2018-06-29 16:10,50.9117333333333,-96.9825316666667,6.6,9.2,50,978.37,22.5,51,21.23,0.0,1003.94,157.3
2018-06-29 16:20,50.911725,-96.9825316666667,6.7,9.1,51,978.15,22.7,56,21.29,0.0,1003.68,157.3
2018-06-29 16:30,50.9117266666667,-96.9825316666667,7.8,9.9,51,978.02,22.9,59,21.35,0.0,1003.52,157.3
2018-06-29 16:40,50.9117233333333,-96.9825316666667,6.9,10.3,50,978.16,22.9,58,21.41,0.0,1003.65,157.3
2018-06-29 16:50,50.9117266666667,-96.9825366666667,7.4,9.1,52,978.04,22.9,62,21.47,0.0,1003.50,157.3
2018-06-29 17:00,50.911725,-96.9825316666667,4.1,6.2,58,978.17,22.8,62,21.50,0.0,1003.63,360.0
2018-06-29 17:10,50.9117266666667,-96.9825316666667,1.9,4.6,69,978.40,23.2,60,21.51,0.0,1003.85,360.0
2018-06-29 17:20,50.9117283333333,-96.9825333333333,2.0,2.7,88,978.60,23.2,58,21.50,0.0,1004.05,360.0
2018-06-29 17:30,50.9117266666667,-96.9825316666667,1.7,3.1,60,978.65,23.4,57,21.47,0.0,1004.11,360.0
2018-06-29 17:40,50.9117266666667,-96.9825316666667,2.3,4.6,67,978.75,23.4,60,21.46,0.0,1004.21,360.0
2018-06-29 17:50,50.91173,-96.9825216666667,2.8,4.5,70,978.78,23.4,58,21.47,0.0,1004.24,360.0
2018-06-29 18:00,50.9117366666667,-96.9825616666667,3.6,5.0,89,978.83,23.4,56,21.47,0.0,1004.27,283.9
2018-06-29 18:10,50.9117266666667,-96.9825383333333,3.8,4.8,128,979.02,22.1,55,21.45,0.0,1004.52,283.9
2018-06-29 18:20,50.9117283333333,-96.982525,4.3,5.4,143,979.29,21.6,60,21.44,0.0,1004.81,283.9
2018-06-29 18:30,50.9116933333333,-96.9825166666667,4.1,5.4,135,979.34,21.5,58,21.44,0.0,1004.86,283.9
2018-06-29 18:40,50.9117216666667,-96.9825183333333,3.1,4.0,126,979.08,22.0,57,21.43,0.0,1004.57,283.9
2018-06-29 18:50,50.9117216666667,-96.9825216666667,1.9,2.9,115,979.03,23.1,55,21.43,0.0,1004.48,283.9
2018-06-29 19:00,50.9117233333333,-96.9825233333333,2.3,3.2,105,979.12,23.8,50,21.45,0.0,1004.52,347.1
2018-06-29 19:10,50.9117233333333,-96.9825216666667,1.9,3.2,73,979.12,24.8,46,21.48,0.0,1004.48,347.1
2018-06-29 19:20,50.911725,-96.9825266666667,2.3,4.6,56,979.08,25.3,45,21.54,0.0,1004.41,347.1
2018-06-29 19:30,50.911725,-96.9825266666667,5.3,10.2,43,978.98,25.0,45,21.65,0.0,1004.31,347.1
2018-06-29 19:40,50.9117266666667,-96.9825283333333,5.0,8.8,29,979.13,24.7,44,21.85,0.0,1004.48,347.1
2018-06-29 19:50,50.9117283333333,-96.9825283333333,5.1,7.9,62,979.36,25.3,46,22.04,0.0,1004.70,347.1
2018-06-29 20:00,50.911725,-96.9825233333333,5.6,6.9,76,979.38,25.8,46,22.15,0.0,1004.76,90.0
2018-06-29 20:10,50.911725,-96.9825416666667,5.1,6.7,76,979.18,26.0,46,22.18,0.0,1004.56,90.0
2018-06-29 20:20,50.9117316666667,-96.9825266666667,3.7,6.5,66,978.92,26.2,48,22.24,0.0,1004.29,90.0
2018-06-29 20:30,50.9117316666667,-96.9825283333333,4.2,6.5,59,978.80,25.9,50,22.31,0.0,1004.16,90.0
2018-06-29 20:40,50.9117266666667,-96.9824716666667,4.8,9.1,56,978.72,25.6,54,22.39,0.0,1004.04,90.0
2018-06-29 20:50,50.911735,-96.9825216666667,6.0,8.3,57,978.75,25.5,52,22.48,0.0,1004.05,90.0
2018-06-29 21:00,50.9117366666667,-96.982525,6.2,9.4,54,978.84,25.6,49,22.57,0.0,1004.09,90.0
2018-06-29 21:10,50.911735,-96.982525,5.6,8.6,54,978.77,25.9,48,22.67,0.0,1003.98,90.0
2018-06-29 21:20,50.9117333333333,-96.9825216666667,5.7,7.9,55,978.68,26.1,49,22.76,0.0,1003.90,90.0
2018-06-29 21:30,50.9117333333333,-96.9825216666667,6.1,8.1,51,978.67,26.0,46,22.84,0.0,1003.91,90.0
2018-06-29 21:40,50.9117333333333,-96.9825233333333,7.1,9.8,50,978.46,26.0,44,22.92,0.0,1003.67,90.0
2018-06-29 21:50,50.9117316666667,-96.9825233333333,7.7,9.4,45,978.40,25.9,45,23.02,0.0,1003.59,90.0
2018-06-29 22:00,50.91172,-96.982515,8.3,10.3,47,978.30,25.7,43,23.12,0.0,1003.48,170.2
2018-06-29 22:10,50.9117266666667,-96.9825283333333,6.6,9.6,42,978.19,25.7,42,23.20,0.0,1003.37,170.2
2018-06-29 22:20,50.91173,-96.9825366666667,7.5,11.7,44,978.12,26.0,40,23.27,0.0,1003.29,170.2
2018-06-29 22:30,50.9117283333333,-96.982535,7.1,10.2,38,978.03,26.1,41,23.37,0.0,1003.20,170.2
2018-06-29 22:40,50.9117183333333,-96.982515,8.4,11.4,40,977.73,26.4,38,23.49,0.0,1002.89,170.2
2018-06-29 22:50,50.91172,-96.9825116666667,9.2,14.5,45,977.65,26.4,40,23.62,0.0,1002.80,170.2
2018-06-29 23:00,50.9117233333333,-96.982525,8.4,12.2,41,977.65,26.4,40,23.72,0.0,1002.78,270.0
2018-06-29 23:10,50.9117233333333,-96.9825283333333,6.2,9.4,27,977.78,26.8,37,23.81,0.0,1002.89,270.0
2018-06-29 23:20,50.9117266666667,-96.9825283333333,7.0,10.5,23,977.66,26.7,36,23.94,0.0,1002.79,270.0
2018-06-29 23:30,50.9117283333333,-96.98253,5.4,10.8,26,977.60,26.6,38,24.02,0.0,1002.73,270.0
